| time (UTC) | temp F | wind direction | speed knots | gust knots | rain 1hr in | rain 24hr in | rain mn in | humidity % | barometer mb |
| 20260505153043 | 76 | 157 | 1.7 | 0.0 | 0.00 | 0.00 | 0.00 | 55 | 1012.6 |
| 20260505151539 | 74 | 138 | 0.9 | 0.0 | 0.00 | 0.00 | 0.00 | 56 | 1013.0 |
| 20260505124509 | 62 | 351 | 0.9 | 0.0 | 0.00 | 0.00 | 0.00 | 77 | 1012.4 |
| 20260505123003 | 59 | 302 | 1.7 | 0.0 | 0.00 | 0.00 | 0.00 | 82 | 1012.3 |
| 20260505121559 | 56 | 296 | 0.9 | 0.0 | 0.00 | 0.00 | 0.00 | 87 | 1012.3 |
| 20260505120055 | 54 | 5 | 0.0 | 0.0 | 0.00 | 0.00 | 0.00 | 90 | 1012.1 |
| 20260505114555 | 52 | 177 | 0.0 | 0.0 | 0.00 | 0.00 | 0.00 | 91 | 1011.9 |
| 20260505113109 | 51 | 282 | 0.0 | 0.0 | 0.00 | 0.00 | 0.00 | 91 | 1012.0 |
| 20260505111552 | 50 | 126 | 0.0 | 0.0 | 0.00 | 0.00 | 0.00 | 90 | 1012.1 |
| 20260505110153 | 50 | 218 | 0.0 | 0.0 | 0.00 | 0.00 | 0.00 | 90 | 1012.0 |
| 20260505101538 | 50 | 107 | 0.0 | 0.0 | 0.00 | 0.00 | 0.00 | 88 | 1011.8 |
| 20260505100038 | 51 | 227 | 0.0 | 0.0 | 0.00 | 0.00 | 0.00 | 88 | 1011.7 |
| 20260505094537 | 51 | 207 | 0.0 | 0.0 | 0.00 | 0.00 | 0.00 | 88 | 1011.7 |
| 20260505093039 | 50 | 153 | 0.0 | 0.0 | 0.00 | 0.00 | 0.00 | 89 | 1011.7 |
| 20260505091543 | 49 | 146 | 0.0 | 0.0 | 0.00 | 0.00 | 0.00 | 90 | 1011.7 |
| 20260505090035 | 49 | 125 | 0.0 | 0.0 | 0.00 | 0.00 | 0.00 | 90 | 1011.5 |
| 20260505084534 | 49 | 175 | 0.0 | 0.0 | 0.00 | 0.00 | 0.00 | 90 | 1011.5 |
| 20260505083034 | 49 | 175 | 0.0 | 0.0 | 0.00 | 0.00 | 0.00 | 89 | 1011.3 |
| 20260505081537 | 49 | 175 | 0.0 | 0.0 | 0.00 | 0.00 | 0.00 | 89 | 1011.4 |
| 20260505080031 | 49 | 175 | 0.0 | 0.0 | 0.00 | 0.00 | 0.00 | 89 | 1011.3 |
| 20260505074531 | 49 | 175 | 0.0 | 0.0 | 0.00 | 0.00 | 0.00 | 89 | 1011.2 |
| 20260505073032 | 49 | 175 | 0.0 | 0.0 | 0.00 | 0.00 | 0.00 | 90 | 1011.2 |
| 20260505071529 | 49 | 175 | 0.0 | 0.0 | 0.00 | 0.00 | 0.00 | 90 | 1011.1 |
| 20260505070036 | 49 | 175 | 0.0 | 0.0 | 0.00 | 0.00 | 0.00 | 89 | 1011.1 |
| 20260505064528 | 49 | 157 | 0.0 | 0.0 | 0.00 | 0.00 | 0.00 | 89 | 1011.2 |
| 20260505063027 | 49 | 157 | 0.0 | 0.0 | 0.00 | 0.00 | 0.00 | 88 | 1011.0 |
| 20260505061534 | 49 | 157 | 0.0 | 0.0 | 0.00 | 0.00 | 0.00 | 88 | 1011.0 |
| 20260505060024 | 50 | 157 | 0.0 | 0.0 | 0.00 | 0.00 | 0.00 | 87 | 1011.1 |
| 20260505054523 | 50 | 157 | 0.0 | 0.0 | 0.00 | 0.00 | 0.00 | 87 | 1011.1 |
| 20260505053020 | 51 | 157 | 0.0 | 0.0 | 0.00 | 0.00 | 0.00 | 86 | 1011.2 |
| 20260505051533 | 51 | 157 | 0.0 | 0.0 | 0.00 | 0.00 | 0.00 | 85 | 1011.4 |
| 20260505041510 | 53 | 157 | 0.0 | 0.0 | 0.00 | 0.00 | 0.00 | 82 | 1011.5 |
| 20260505040013 | 53 | 157 | 0.0 | 0.0 | 0.00 | 0.00 | 0.00 | 81 | 1011.4 |
| 20260505034507 | 54 | 157 | 0.0 | 0.0 | 0.00 | 0.00 | 0.00 | 80 | 1011.5 |
| 20260505033006 | 55 | 157 | 0.0 | 0.0 | 0.00 | 0.00 | 0.00 | 79 | 1011.6 |
| 20260505031505 | 55 | 157 | 0.0 | 0.0 | 0.00 | 0.00 | 0.00 | 78 | 1011.5 |
| 20260505030005 | 56 | 157 | 0.0 | 0.0 | 0.00 | 0.00 | 0.00 | 76 | 1011.6 |
| 20260505024509 | 57 | 157 | 0.0 | 0.0 | 0.00 | 0.00 | 0.00 | 74 | 1011.5 |
| 20260505023004 | 58 | 157 | 0.0 | 0.0 | 0.00 | 0.00 | 0.00 | 72 | 1011.4 |
| 20260505021504 | 59 | 157 | 0.0 | 0.0 | 0.00 | 0.00 | 0.00 | 69 | 1011.4 |
| 20260505020007 | 60 | 157 | 0.0 | 0.0 | 0.00 | 0.00 | 0.00 | 67 | 1011.2 |
| 20260505014504 | 61 | 157 | 0.0 | 0.0 | 0.00 | 0.00 | 0.00 | 64 | 1011.0 |
| 20260505013002 | 62 | 157 | 0.0 | 0.0 | 0.00 | 0.00 | 0.00 | 62 | 1010.9 |
| 20260505011501 | 64 | 157 | 0.0 | 0.0 | 0.00 | 0.00 | 0.00 | 59 | 1010.7 |
| 20260505010002 | 65 | 157 | 0.0 | 0.0 | 0.00 | 0.00 | 0.00 | 56 | 1010.7 |
| 20260505004504 | 67 | 157 | 0.0 | 0.0 | 0.00 | 0.00 | 0.00 | 54 | 1010.5 |
| 20260505003002 | 68 | 160 | 0.0 | 0.0 | 0.00 | 0.00 | 0.00 | 50 | 1010.5 |
| 20260505001609 | 69 | 128 | 0.0 | 0.0 | 0.00 | 0.00 | 0.00 | 48 | 1010.5 |
| 20260504234600 | 72 | 184 | 0.9 | 0.0 | 0.00 | 0.00 | 0.00 | 44 | 1010.2 |
| 20260504233109 | 73 | 150 | 1.7 | 0.0 | 0.00 | 0.00 | 0.00 | 42 | 1010.0 |
| 20260504231604 | 74 | 257 | 0.9 | 0.0 | 0.00 | 0.00 | 0.00 | 38 | 1009.9 |
| 20260504230157 | 75 | 102 | 1.7 | 0.0 | 0.00 | 0.00 | 0.00 | 35 | 1009.9 |
| 20260504224543 | 76 | 103 | 0.9 | 0.0 | 0.00 | 0.00 | 0.00 | 38 | 1009.9 |
| 20260504223042 | 77 | 224 | 0.9 | 0.0 | 0.00 | 0.00 | 0.00 | 35 | 1009.9 |
| 20260504221542 | 79 | 325 | 1.7 | 0.0 | 0.00 | 0.00 | 0.00 | 34 | 1010.0 |
| 20260504220041 | 80 | 184 | 1.7 | 0.0 | 0.00 | 0.00 | 0.00 | 34 | 1010.0 |
| 20260504214542 | 80 | 105 | 0.9 | 0.0 | 0.00 | 0.00 | 0.00 | 35 | 1009.9 |
| 20260504213040 | 81 | 80 | 1.7 | 0.0 | 0.00 | 0.00 | 0.00 | 34 | 1009.9 |
| 20260504211540 | 81 | 132 | 0.9 | 0.0 | 0.00 | 0.00 | 0.00 | 35 | 1009.9 |
| 20260504210043 | 81 | 205 | 1.7 | 0.0 | 0.00 | 0.00 | 0.00 | 33 | 1010.0 |
| 20260504204545 | 81 | 197 | 1.7 | 0.0 | 0.00 | 0.00 | 0.00 | 36 | 1010.1 |
| 20260504203051 | 80 | 150 | 1.7 | 0.0 | 0.00 | 0.00 | 0.00 | 34 | 1010.2 |
| 20260504201534 | 81 | 72 | 1.7 | 0.0 | 0.00 | 0.00 | 0.00 | 34 | 1010.3 |
| 20260504200032 | 81 | 132 | 1.7 | 0.0 | 0.00 | 0.00 | 0.00 | 31 | 1010.5 |
| 20260504194533 | 81 | 331 | 1.7 | 0.0 | 0.00 | 0.00 | 0.00 | 31 | 1010.6 |
| 20260504193027 | 80 | 172 | 1.7 | 0.0 | 0.00 | 0.00 | 0.00 | 35 | 1010.9 |
| 20260504191527 | 79 | 171 | 1.7 | 0.0 | 0.00 | 0.00 | 0.00 | 31 | 1011.1 |
| 20260504190024 | 80 | 263 | 1.7 | 0.0 | 0.00 | 0.00 | 0.00 | 35 | 1011.3 |
| 20260504184522 | 79 | 86 | 1.7 | 0.0 | 0.00 | 0.00 | 0.00 | 37 | 1011.5 |
| 20260504183023 | 80 | 49 | 1.7 | 0.0 | 0.00 | 0.00 | 0.00 | 32 | 1011.7 |
| 20260504181517 | 79 | 159 | 1.7 | 0.0 | 0.00 | 0.00 | 0.00 | 33 | 1011.8 |
| 20260504180013 | 77 | 78 | 0.9 | 0.0 | 0.00 | 0.00 | 0.00 | 34 | 1011.9 |
| 20260504174511 | 77 | 319 | 0.9 | 0.0 | 0.00 | 0.00 | 0.00 | 34 | 1012.1 |
| 20260504173009 | 76 | 60 | 1.7 | 0.0 | 0.00 | 0.00 | 0.00 | 36 | 1012.2 |
| 20260504171506 | 76 | 298 | 0.9 | 0.0 | 0.00 | 0.00 | 0.00 | 33 | 1012.3 |